Terminal Aerodrome Forecast
Issued by NWS Louisville, KY

Home | Current Version | Previous Version | Text Only | Print | Product List | Glossary On
Versions: 1 2 3 4 5 6 7 8 9 10 11 12 13 14 15 16 17 18 19
000
FTUS43 KLMK 061126
TAFSDF
TAF
KSDF 061126Z 0612/0718 04004KT 3SM -RA BR OVC006
      TEMPO 0612/0616 4SM RA BR OVC004
     FM061700 31010KT P6SM OVC012
     FM070800 30006KT P6SM SCT015 SCT050=

USA.gov is the U.S. government's official web portal to all federal, state and local government web resources and services.